Location: Praha
(50.0830°N, 14.4670°E)
Time: 19:02:03
(UTC+02:00)

ISS - Pass Details

Date: 13 July 2021
Orbit: 419 x 421 km, 51.6° (Epoch: 02 August)

Event Time Altitude Azimuth Distance (km) Brightness Sun altitude
Rises 22:53:53 0° 224° (SW) 2,359 -0.1 -12.3°
Reaches altitude 10° 22:56:04 10° 215° (SW) 1,498 -1.2 -12.5°
Maximum altitude 22:59:10 34° 149° (SSE) 706 -3.2 -12.8°
Drops below altitude 10° 23:02:16 10° 82° (E) 1,504 -1.2 -13.0°
Sets 23:04:28 0° 73° (ENE) 2,371 -0.1 -13.2°
